Regional Weather Roundup
Issued by NWS State College, PA

Home | Current Version | Previous Version | Text Only | Print | Product List | Glossary On
Versions: 1 2 3 4 5 6 7 8 9 10 11 12 13 14 15 16 17 18 19 20 21 22 23 24 25 26 27 28 29 30 31 32 33 34 35 36 37 38 39 40 41 42 43 44 45 46 47 48 49 50
000
ASUS41 KCTP 071210
RWRCTP

REGIONAL WEATHER ROUNDUP
NATIONAL WEATHER SERVICE STATE COLLEGE PA
700 AM EST WED DEC 07 2016

Note: "fair" indicates few or no clouds below 12,000 feet with no
significant weather and/or obstructions to visibility.

* = STATION THAT DOES NOT REPORT PRECIPITATION /E.G. RAIN...SNOW...ETC/
    THUNDER OR FOG.

PAZ002>004-007>009-013>016-020>023-029>032-071300-
WESTERN PENNSYLVANIA

CITY           SKY/WX    TMP DP  RH WIND       PRES   REMARKS
ERIE           CLOUDY    38  29  70 SW16      29.96R
MEADVILLE      CLOUDY    33  27  78 SW13G20   29.98R
FRANKLIN*        N/A     32  25  74 W9        29.99R
NEW CASTLE     PTSUNNY   33  27  78 SW7       30.03R
BEAVER COUNTY  MOCLDY    32  28  86 W5        30.02
BUTLER*        MOCLDY    34  27  75 W6        30.04R
PITTSBURGH INT MOCLDY    36  31  82 W3        30.02R
PITTSBURGH     PTCLDY    34  28  79 SW8       30.02R
INDIANA*       CLOUDY    36  34  93 W9        30.02R
LATROBE        CLOUDY    36  34  93 SW12      30.03S
WASHINGTON CO* MOCLDY    34  27  75 SW8       30.05R
$$

PAZ004>006-010>012-017>019-024>028-033>037-041-042-045-046-049>053-071300-
CENTRAL PENNSYLVANIA

CITY           SKY/WX    TMP DP  RH WIND       PRES   REMARKS
BRADFORD       MOCLDY    34  31  88 W8        29.90R
DUBOIS         MOCLDY    34  30  85 W10       29.94R
CLEARFIELD     CLOUDY    36  32  85 W8        29.97R
JOHNSTOWN      CLOUDY    33  30  88 W14       29.95R
ALTOONA        CLOUDY    37  33  85 NW9       29.98R
STATE COLLEGE  LGT RAIN  37  36  93 W9G17     29.96R
WILLIAMSPORT   CLOUDY    40  33  76 SW3       29.96R
SELINSGROVE    CLOUDY    36  36 100 CALM      29.99R FOG
FT INDIANTOWN  CLOUDY    37  37 100 SW5       29.97R
CAPITAL CITY   CLOUDY    40  37  89 W5        29.99R
HARRISBURG     CLOUDY    40  39  97 W5        29.98R
YORK           CLOUDY    38  38 100 CALM      29.98R FOG
$$

PAZ038>040-043-044-047-048-054-055-060>062-067>071-071300-
EASTERN PENNSYLVANIA

CITY           SKY/WX    TMP DP  RH WIND       PRES   REMARKS
SCRANTON       CLOUDY    35  34  96 CALM      29.93R FOG
MOUNT POCONO   CLOUDY    32  31  96 NW5       29.89R FOG
ALLENTOWN      CLOUDY    38  35  89 NW5       29.96R
QUAKERTOWN*    CLOUDY    36  36 100 CALM      29.96R
READING        CLOUDY    38  36  92 CALM      29.97R FOG
LANCASTER      CLOUDY    39  38  96 CALM      29.97R FOG
COATESVILLE    MIX PCPN  37  37 100 N6        29.97R
POTTSTOWN      CLOUDY    37  37 100 NW3       29.98R FOG
BLUE BELL      CLOUDY    36  36 100 W6        29.96R
DOYLESTOWN     CLOUDY    39  38  96 CALM      29.94R
WILLOW GROVE   NOT AVBL
NORTH PHILA    CLOUDY    41  39  93 N8        29.96R
PHILADELPHIA   CLOUDY    41  39  93 NW9       29.97R
$$




USA.gov is the U.S. government's official web portal to all federal, state and local government web resources and services.